Weather History for Alamogordo, NM

Change the Weather History Date:

Saturday, May 18, 2013

  Actual Average Record
Temperature  
Mean Temperature 72 °F -  
Max Temperature 87 °F 86 °F 100 °F (2003)
Min Temperature 57 °F 55 °F 39 °F (1986)
Cooling Degree Days 7    
Growing Degree Days 22 (Base 50)    
Moisture  
Dew Point 16 °F    
Average Humidity 11    
Maximum Humidity 19    
Minimum Humidity 6    
Precipitation  
Precipitation 0.00 in - - ()
Sea Level Pressure  
Sea Level Pressure 29.95 in    
Wind  
Wind Speed 7 mph (SW)    
Max Wind Speed 32 mph    
Max Gust Speed 37 mph    
Visibility 10 miles    
Events      
Averages and records for this station are not official NWS values.
T = Trace of Precipitation, MM = Missing Value Source: NWS Daily Summary

Daily Weather History Graph

Daily Weather History Graph

Search for Another Location

Airport:

Trip Planner

Search our weather history database for the weather conditions in past years. The results will help you decide how hot, cold, wet, or windy it might be!

Date:

Astronomy

May. 18, 2013 Rise Set
Actual Time 6:02 AM MDT 7:58 PM MDT
Civil Twilight 5:35 AM MDT 8:25 PM MDT
Nautical Twilight 5:02 AM MDT 8:59 PM MDT
Astronomical Twilight 4:26 AM MDT 9:34 PM MDT
Moon 1:25 PM MDT (5/18) 1:34 AM MDT (5/18)
Length of Visible Light 14h 50m
Length of Day
13h 55m
First Quarter, 56% of the Moon is Illuminated
May 18
First Quarter
May 24
Full
May 31
Last Quarter
Jun 8
New
Jun 16
First Quarter

Hourly Weather History & Observations

Time (MDT) Temp. Dew Point Humidity Pressure Visibility Wind Dir Wind Speed Gust Speed Precip Events Conditions
12:15 AM 69.8 °F 21.2 °F 16% 29.94 in 10.0 mi SE 5.8 mph - N/A   Clear
12:35 AM 66.2 °F 21.2 °F 18% 29.95 in 10.0 mi SSE 9.2 mph - N/A   Clear
12:55 AM 68.0 °F 17.6 °F 15% 29.95 in 10.0 mi SSE 4.6 mph - N/A   Clear
1:15 AM 71.6 °F 14.0 °F 11% 29.95 in 10.0 mi SSE 3.5 mph - N/A   Clear
1:35 AM 71.6 °F 14.0 °F 11% 29.94 in 10.0 mi Calm Calm - N/A   Clear
1:55 AM 68.0 °F 15.8 °F 13% 29.95 in 10.0 mi SSE 3.5 mph - N/A   Clear
2:15 AM 68.0 °F 14.0 °F 12% 29.94 in 10.0 mi South 5.8 mph - N/A   Clear
2:35 AM 64.4 °F 14.0 °F 14% 29.95 in 10.0 mi East 3.5 mph - N/A   Clear
2:55 AM 66.2 °F 14.0 °F 13% 29.95 in 10.0 mi SE 4.6 mph - N/A   Clear
3:15 AM 62.6 °F 14.0 °F 15% 29.95 in 10.0 mi Calm Calm - N/A   Clear
3:35 AM 62.6 °F 12.2 °F 14% 29.96 in 10.0 mi Calm Calm - N/A   Clear
3:55 AM 59.0 °F 14.0 °F 17% 29.96 in 10.0 mi Calm Calm - N/A   Clear
4:15 AM 59.0 °F 14.0 °F 17% 29.97 in 10.0 mi Calm Calm - N/A   Clear
4:35 AM 57.2 °F 12.2 °F 17% 29.96 in 10.0 mi ENE 3.5 mph - N/A   Clear
5:15 AM 62.6 °F 12.2 °F 14% 29.97 in 10.0 mi SSE 5.8 mph - N/A   Unknown
5:35 AM 59.0 °F 14.0 °F 17% 29.97 in - SSE 5.8 mph - N/A   Unknown
5:55 AM 59.0 °F 14.0 °F 17% 29.97 in 10.0 mi SE 5.8 mph - N/A   Clear
6:15 AM 59.0 °F 14.0 °F 17% 29.98 in 10.0 mi SE 6.9 mph - N/A   Clear
6:35 AM 62.6 °F 14.0 °F 15% 29.98 in 10.0 mi SSE 5.8 mph - N/A   Clear
6:55 AM 60.8 °F 17.6 °F 19% 29.99 in 10.0 mi South 4.6 mph - N/A   Clear
7:15 AM 62.6 °F 19.4 °F 19% 30.00 in 10.0 mi SSE 6.9 mph - N/A   Clear
7:35 AM 66.2 °F 17.6 °F 15% 30.01 in 10.0 mi South 6.9 mph - N/A   Clear
7:55 AM 68.0 °F 17.6 °F 15% 30.01 in 10.0 mi South 9.2 mph - N/A   Clear
8:15 AM 71.6 °F 17.6 °F 13% 30.01 in 10.0 mi South 8.1 mph - N/A   Clear
8:35 AM 73.4 °F 17.6 °F 12% 30.02 in 10.0 mi SSW 6.9 mph - N/A   Clear
8:55 AM 75.2 °F 15.8 °F 11% 30.02 in 10.0 mi South 4.6 mph - N/A   Clear
9:15 AM 75.2 °F 15.8 °F 11% 30.02 in 10.0 mi NNW 3.5 mph - N/A   Clear
9:35 AM 75.2 °F 15.8 °F 11% 30.02 in 10.0 mi Calm Calm - N/A   Clear
9:55 AM 77.0 °F 15.8 °F 10% 30.02 in 10.0 mi SSW 4.6 mph - N/A   Clear
10:15 AM 78.8 °F 15.8 °F 9% 30.01 in 10.0 mi NNW 3.5 mph - N/A   Clear
10:35 AM 78.8 °F 15.8 °F 9% 30.01 in 10.0 mi NNE 4.6 mph - N/A   Clear
10:55 AM 80.6 °F 15.8 °F 9% 30.01 in 10.0 mi SSE 3.5 mph - N/A   Clear
11:15 AM 80.6 °F 15.8 °F 9% 30.01 in 10.0 mi Calm Calm - N/A   Clear
11:35 AM 82.4 °F 17.6 °F 9% 30.00 in 10.0 mi NW 6.9 mph 17.3 mph N/A   Clear
11:55 AM 82.4 °F 15.8 °F 8% 30.00 in 10.0 mi SSW 12.7 mph - N/A   Clear
12:15 PM 82.4 °F 15.8 °F 8% 29.99 in 10.0 mi SSE 9.2 mph - N/A   Clear
12:35 PM 84.2 °F 17.6 °F 8% 29.98 in 10.0 mi West 8.1 mph 16.1 mph N/A   Clear
1:15 PM 84.2 °F 17.6 °F 8% 29.96 in 10.0 mi SW 6.9 mph 19.6 mph N/A   Clear
1:35 PM 84.2 °F 19.4 °F 9% 29.96 in 10.0 mi SSW 4.6 mph 18.4 mph N/A   Clear
1:55 PM 86.0 °F 19.4 °F 9% 29.94 in 10.0 mi SSW 9.2 mph - N/A   Clear
2:15 PM 86.0 °F 19.4 °F 9% 29.93 in 10.0 mi South 13.8 mph 23.0 mph N/A   Clear
2:35 PM 86.0 °F 19.4 °F 9% 29.92 in 10.0 mi South 13.8 mph 21.9 mph N/A   Clear
2:55 PM 86.0 °F 19.4 °F 9% 29.92 in 10.0 mi WSW 11.5 mph 19.6 mph N/A   Clear
3:15 PM 86.0 °F 17.6 °F 8% 29.91 in 10.0 mi WSW 17.3 mph 25.3 mph N/A   Clear
3:35 PM 87.8 °F 17.6 °F 8% 29.91 in 10.0 mi WSW 18.4 mph 28.8 mph N/A   Clear
3:55 PM 87.8 °F 15.8 °F 7% 29.90 in 10.0 mi WSW 16.1 mph 34.5 mph N/A   Clear
4:15 PM 87.8 °F 12.2 °F 6% 29.90 in 10.0 mi West 13.8 mph 27.6 mph N/A   Clear
4:35 PM 87.8 °F 15.8 °F 7% 29.89 in 10.0 mi WSW 20.7 mph 28.8 mph N/A   Clear
4:55 PM 87.8 °F 14.0 °F 6% 29.88 in 10.0 mi WSW 21.9 mph 27.6 mph N/A   Clear
5:15 PM 86.0 °F 12.2 °F 6% 29.88 in 10.0 mi WSW 19.6 mph 31.1 mph N/A   Clear
5:35 PM 86.0 °F 12.2 °F 6% 29.87 in 10.0 mi SW 18.4 mph 34.5 mph N/A   Clear
5:55 PM 86.0 °F 12.2 °F 6% 29.86 in 10.0 mi West 32.2 mph 36.8 mph N/A   Clear
6:15 PM 86.0 °F 14.0 °F 7% 29.87 in 10.0 mi West 18.4 mph 26.5 mph N/A   Clear
6:35 PM 86.0 °F 15.8 °F 7% 29.87 in 10.0 mi West 23.0 mph 28.8 mph N/A   Clear
6:55 PM 84.2 °F 17.6 °F 8% 29.87 in 10.0 mi West 17.3 mph 26.5 mph N/A   Clear
7:15 PM 82.4 °F 17.6 °F 9% 29.87 in 10.0 mi West 15.0 mph 19.6 mph N/A   Clear
7:35 PM 82.4 °F 15.8 °F 8% 29.87 in 9.0 mi West 19.6 mph 25.3 mph N/A   Clear
8:15 PM 78.8 °F 15.8 °F 9% 29.88 in 10.0 mi WSW 13.8 mph - N/A   Clear
8:35 PM 77.0 °F 15.8 °F 10% 29.89 in 9.0 mi West 13.8 mph 21.9 mph N/A   Clear
8:55 PM 77.0 °F 14.0 °F 9% 29.89 in 10.0 mi West 11.5 mph - N/A   Clear
9:15 PM 75.2 °F 14.0 °F 10% 29.90 in 10.0 mi West 6.9 mph - N/A   Clear
9:35 PM 73.4 °F 14.0 °F 10% 29.91 in 10.0 mi West 5.8 mph - N/A   Clear
9:55 PM 71.6 °F 14.0 °F 11% 29.92 in 10.0 mi WSW 5.8 mph - N/A   Clear
10:15 PM 68.0 °F 14.0 °F 12% 29.92 in 10.0 mi SW 3.5 mph - N/A   Clear
10:35 PM 69.8 °F 14.0 °F 12% 29.92 in 10.0 mi WSW 6.9 mph - N/A   Clear
10:55 PM 68.0 °F 14.0 °F 12% 29.93 in 10.0 mi South 3.5 mph - N/A   Clear
11:15 PM 68.0 °F 14.0 °F 12% 29.93 in 10.0 mi WSW 5.8 mph - N/A   Clear
11:35 PM 68.0 °F 14.0 °F 12% 29.93 in 10.0 mi WSW 6.9 mph - N/A   Clear
11:55 PM 64.4 °F 14.0 °F 14% 29.94 in 10.0 mi WSW 6.9 mph - N/A   Clear